Location: Dead Woman Crossing
(43.5369°N, 106.3228°W)
Time: 15:30:23
(UTC+00:00)

O/OREOS (USA 219) - Pass Details

Date: 30 June 2022
Orbit: 621 x 646 km, 72.0° (Epoch: 22 May)

Event Time Altitude Azimuth Distance (km) Brightness Sun altitude
Rises 06:51:53 0° 345° (NNW) 2,962 ? -23.2°
Reaches altitude 10° 06:54:27 10° 357° (N) 2,051 ? -23.2°
Maximum altitude 06:58:25 28° 57° (ENE) 1,219 ? -23.3°
Enters shadow 07:00:25 20° 97° (E) 1,473 ? -23.3°
